User: anonymous   Login
Location: Bijele Vode
(45.2833°N, 16.2000°E)
Time: 02:24:37
(UTC+00:00)
Language:

Meteor 2-5 Rocket - Orbit

View from above orbital plane
View from above orbital plane
View from above satellite
View from above satellite

Ground track
Ground track

The orbit data is extracted from the following two-line orbital elements,

1 11608U 79095B   20335.54796899 +.00000028 +00000-0 +92561-5 0  9994
2 11608 081.2156 065.9494 0053712 215.1461 144.6161 14.06165883107245
Epoch (UTC): 30 November 2020 13:09:04
Eccentricity: 0.0053712
inclination: 81.2156°
perigee height: 833 km
apogee height: 911 km
right ascension of ascending node: 65.9494°
argument of perigee: 215.1461°
revolutions per day: 14.06165883
mean anomaly at epoch: 144.6161°
orbit number at epoch: 10724

The dashed part of the orbit path shows where the satellite is in the earth's shadow,  

DLR